Voltar ao catálogo

FENGYUN 1C DEB

AtivoPO
NORAD 31952·DEBRIS·🇨🇳 China

Lançado May 10, 1999 de Taiyuan Satellite Launch Center

Loading…

Próximas Passagens (próximas 24 horas)

TLE

AtualizadoSource: Space-Track

Época: Sep 14, 2026, 20:45 UTC

1 31952U 99025CND 26257.86525886  .00001942  00000-0  42998-3 0  9996
2 31952  98.9886  39.6609 0112947 177.3415 182.8404 14.54623685 12111

Acompanhe FENGYUN 1C DEB em tempo real com AllMySat

Download on the App Store